Погода Малые Дербеты

Погода Малые Дербеты : погода сейчас, прогноз погоды и архив. Всё, что Вы хотите узнать о погоде Малые Дербеты!

Хотите узнать прогноз погоды Малые Дербеты? Тогда Вам сюда: Погода Малые Дербеты

Поиск расширенной информации на нашем сайте:

Другие новости

Новости СМИ2

Главная страница сайта

Новости сайта

03.07.2017

Напоминаем, что на нашем специализированном сайте Метеоцентр.Азия вы можете получить высокодетализированные автоматические прогнозы погоды по пунктам России, СНГ и мира в авиационном формате (включающие направление и скорость ветра, видимость, явления погоды, количество и форму облачности, нижнюю и верхнюю границу облачности).

Рекомендуем: Заказать Письмо от Деда Мороза с доставкой на дом.

Погода Малые Дербеты - сегодня

Время (UTC), дата Ветер
(°,м/с) 
Видим.   Явления Облачность Т
(°С)
Тd
(°С)
f(%) Тe
(°С)
Pmin
(гПа)
dP
(гПа)
Po
(мм)
O2
(г/м3)
Тmin Tmax R s Состояние
почвы
09 20.01.18 160 (Ю) 2000 м  дымка{снег} [диам. изморози 2 мм]  10/10 450 м 
[St]
-1 -1.4 97 1021.4  0.6  765  310           
12 20.01.18 210 (ЮЗ) 20000 м  {снег}  9/9 540 м 
[Sc]
-0.7 -2.5 88 1021.5  0.1  765  309           
15 20.01.18 150 (ЮВ) 20000 м    9/9 570 м 
[Sc]
-1.5 -2.9 90 -1  1021.9  0.4  766  311    -0.5  0.5     
18 20.01.18 080 (В) 20000 м    9/9 540 м 
[Sc]
-1.8 -2.9 92 -1  1021.6  -0.3  765  311           
21 20.01.18 100 (В) 4000 м  дымка  9/9 500 м 
[Sc]
-1.8 -2.6 94 -4  1020.9  -0.6  765  311           
00 21.01.18 100 (В) 4000 м  дымка  10/10 360 м 
[St]
-2.1 -2.8 95 -4  1019.8  -1.1  764  311           
03 21.01.18 080 (В) 1000 м  слаб. переохл. морось (гололёд)  10/10 300 м 
[St]
-2.8 -3.2 97 -6  1018.4  -1.4  763  311  -2.8    0.0     
06 21.01.18 100 (В) 0200 м  туман{морось} [диам. гололёда 1 мм]  ?/?  
-3.3 -3.3 100 -6  1017.6  -0.8  762  311  -3.5         
09 21.01.18 110 (В) 0500 м  туман [диам. гололёда 2 мм]  ?/?  
-3.3 -3.3 100 -6  1016.7  -0.9  762  311           
12 21.01.18 100 (В) 20000 м  ледяной дождь (гололёд){туман} [диам. гололёда 2 мм]  10/10 400 м 
[St]
-4 -4.7 95 -7  1015.2  -1.5  761  312           
15 21.01.18 100 (В) 4000 м  слаб. снег  10/10 300 м 
[Ns]
-3.3 -4 95 -6  1015.3  0.1  761  311    -2.8  0.4     
18 21.01.18 140 (ЮВ) 20000 м  {снег, дождь} [диам. гололёда 3 мм]  10/10 360 м 
[St]
-2.5 -3.4 94 -5  1015.2  -0.1  761  310           
21 21.01.18 160 (Ю) 20000 м  [диам. гололёда 3 мм]  10/10 400 м 
[St]
-1.4 -2.5 92 -2  1015.6  0.4  761  308           
00 22.01.18 300 (СЗ) 20000 м    9/9 540 м 
[Sc]
+0.6 -0.5 92 1016.6  762  306           
03 22.01.18 340 (С) 20000 м    9/9 300 м 
[Sc]
+0.3 -0.8 92 +1  1017.6  762  307  -3.3    0.5  равномерный
мокрый или
старый снег
100% 
06 22.01.18 030 (СВ) 4000 м  дымка  10/10 420 м 
[St]
-0.1 -0.9 94 -1  1017.5  762  307           
09 22.01.18 040 (СВ) 20000 м    10/10 450 м 
[St]
+0.7 -0.8 90 -1  1017  -0.5  762  306           
12 22.01.18 030 (СВ) 20000 м    10/10 360 м 
[St]
+0.1 -0.9 93 -2  1016.2  -0.8  761  307           
15 22.01.18 030 (СВ) 0500 м  туман  ?/?  
-1 -1 100 -4  1016.8  -0.8  762  308    +0.7       
18 22.01.18 020 (С) 0500 м  туман [диам. гололёда 0 мм]  ?/?  
-2.6 -2.6 100 -5  1015.6  -1.2  761  310           
21 22.01.18 020 (С) 0500 м  туман [диам. гололёда 0 мм]  ?/?  
-3.5 -3.5 100 -6  1015.2  -0.4  761  311           
00 23.01.18 360 (С) 1000 м  дымка{туман} [диам. гололёда 1 мм]  10/10 330 м 
[St]
-4.1 -4.3 99 -7  1014.6  -0.6  760  311           
03 23.01.18 010 (С) 1000 м  дымка  10/10 300 м 
[St]
-5.2 -5.5 98 -8  1013.9  -0.7  760  313  -5.2         
06 23.01.18 020 (С) 4000 м  дымка  10/10 330 м 
[St]
-5 -5.7 95 -7  1013.9  760  312  -5.4         
09 23.01.18 030 (СВ) 20000 м  в посл. час морось{снег} [диам. гололёда 0 мм]  9/9 500 м 
[Sc]
-4.5 -5.7 91 -7  1013.8  0.1  759  312           
Время (UTC), дата Ветер
(°,м/с) 
Видим.   Явления Облачность Т
(°С)
Тd
(°С)
f(%) Тe
(°С)
Pmin
(гПа)
dP
(гПа)
Po
(мм)
O2
(г/м3)
Тmin Tmax R s Состояние
почвы

Для получения пояснительной информации подведите курсор к названию столбца.

ПОГОДА Малые Дербеты - архив

Всё, что Вы хотите узнать о погоде Малые Дербеты - удобно и подробно!

Выберите нужную дату (начиная с 1 января 2015* года) и нажмите кнопку "Найти".
Будут отображены архивные сводки погоды по пункту Малые Дербеты, начиная с указанной даты.


Отображать данные в формате CSV (для использования в таблицах Excel)


Внимание! Наш архив погоды предназначен исключительно для личного некоммерческого использования в познавательных целях. Если Вам необходимы официальные справки о состоянии погоды (для производственных, юридических, коммерческих и т.п. целей), обращайтесь в органы Росгидромета.

*Примечание: данная дата относится к архиву по метеостанциям СССР (Россия, СНГ, Балтия).
Архив по метеостанциям Зарубежной Европы и Азии (кроме Китая) хранится 10 дней, по другим регионам земного шара (Китай, Африка, Америка, Австралия, Океания) - 1 день.

Малые Дербеты - район местоположения метеостанции


Название, широта, долгота, высота метеостанции:
Малые Дербеты 47.9°ш. 44.7°д. 9 м над ур. моря [Российская Федерация]

Дополнительная информация

В oтличие oт бoльшинства пoгoдных сайтoв мы публикуем пoдрoбную метеoинфoрмацию в детальнoм прoфессиoнальнoм фoрмате.

Характеристики температуры и влажнoсти вoздуха измеряются на высoте 2 м в тени вдали oт зданий и деревьев.
Скoрoсть ветра измеряется на высoте 10 м (на урoвне рoста челoвека скoрoсть ветра ниже в 1.5-2 раза). Если метеoстанция нахoдится в гoрoде или в лесу, тo скoрoсть ветра занижена на 2-4 м/с пo сравнению с oткрытым местoм. Скoрoсть ветра над акватoриями крупных рек и oзёр, а также на вершинах хoлмoв на 2-5 м/с выше, чем в oбычных услoвиях.
Атмoсфернoе давление в разных тoчках местнoсти мoжет значительнo oтличаться oт давления на метеoстанции, в зависимoсти oт услoвий рельефа (при пoдъёме на 10 м давление пoнижается примернo на 1 мм рт.ст.).